• In Hungary
  • List of Countries
  • For 7 days
  • Water Temperature
  • Satellite Maps
  • Weather Map
  • News
  • Weather Widgets
  • user-avatar
    Login

    Hourly Weather Moncada

    Today, 14 November, Wednesday

    Time Temperature Precipitation Wind Pressure Humidity
    00:00 +17°C° 0 mm 4 mps 765 mmHg 91%
    01:00 +17°C° 0.2 mm 4 mps 764 mmHg 90%
    02:00 +17°C° 0.2 mm 3 mps 764 mmHg 90%
    03:00 +17°C° 0.2 mm 3 mps 764 mmHg 90%
    04:00 +17°C° 0.2 mm 3 mps 764 mmHg 91%
    05:00 +17°C° 0.2 mm 3 mps 764 mmHg 91%
    06:00 +17°C° 0.2 mm 3 mps 763 mmHg 91%
    07:00 +17°C° 0 mm 3 mps 763 mmHg 90%
    08:00 +18°C° 0 mm 4 mps 763 mmHg 88%
    09:00 +18°C° 0 mm 4 mps 763 mmHg 86%
    10:00 +19°C° 0.2 mm 4 mps 763 mmHg 83%
    11:00 +20°C° 0.2 mm 4 mps 763 mmHg 79%
    12:00 +20°C° 0.2 mm 5 mps 762 mmHg 76%
    13:00 +20°C° 0.2 mm 5 mps 762 mmHg 76%
    14:00 +20°C° 0.2 mm 5 mps 762 mmHg 77%
    15:00 +20°C° 0.2 mm 5 mps 761 mmHg 78%
    16:00 +19°C° 0.3 mm 5 mps 761 mmHg 82%
    17:00 +18°C° 0.3 mm 4 mps 761 mmHg 86%
    18:00 +18°C° 0.3 mm 4 mps 761 mmHg 90%
    19:00 +17°C° 0.4 mm 4 mps 761 mmHg 90%
    20:00 +17°C° 0.4 mm 4 mps 761 mmHg 90%
    21:00 +17°C° 0.4 mm 3 mps 761 mmHg 91%
    22:00 +17°C° 0.2 mm 4 mps 761 mmHg 90%
    23:00 +17°C° 0.2 mm 4 mps 761 mmHg 89%

    Tomorrow, 15 November, Thursday

    Time Temperature Precipitation Wind Pressure Humidity
    00:00 +15°C° 0.2 mm 4 mps 760 mmHg 89%
    01:00 +15°C° 0 mm 4 mps 760 mmHg 89%
    02:00 +15°C° 0 mm 4 mps 760 mmHg 89%
    03:00 +15°C° 0 mm 4 mps 759 mmHg 89%
    04:00 +15°C° 0.2 mm 4 mps 759 mmHg 88%
    05:00 +15°C° 0.2 mm 4 mps 759 mmHg 88%
    06:00 +15°C° 0.2 mm 4 mps 759 mmHg 87%
    07:00 +15°C° 0.2 mm 4 mps 759 mmHg 84%
    08:00 +17°C° 0.2 mm 4 mps 760 mmHg 82%
    09:00 +18°C° 0.2 mm 4 mps 760 mmHg 79%
    10:00 +19°C° 0.1 mm 4 mps 760 mmHg 77%
    11:00 +19°C° 0.1 mm 4 mps 760 mmHg 75%
    12:00 +20°C° 0.1 mm 5 mps 759 mmHg 73%
    13:00 +20°C° 0.3 mm 5 mps 759 mmHg 73%
    14:00 +20°C° 0.3 mm 5 mps 759 mmHg 73%
    15:00 +20°C° 0.3 mm 5 mps 759 mmHg 72%
    16:00 +20°C° 0.3 mm 5 mps 759 mmHg 78%
    17:00 +19°C° 0.3 mm 4 mps 759 mmHg 83%
    18:00 +18°C° 0.3 mm 4 mps 760 mmHg 88%
    19:00 +17°C° 0.2 mm 4 mps 760 mmHg 89%
    20:00 +17°C° 0.2 mm 4 mps 760 mmHg 89%
    21:00 +17°C° 0.2 mm 3 mps 761 mmHg 89%
    22:00 +17°C° 0.2 mm 3 mps 761 mmHg 88%
    23:00 +17°C° 0.2 mm 4 mps 761 mmHg 88%

    Day after tomorrow, 16 November, Friday

    Time Temperature Precipitation Wind Pressure Humidity
    00:00 +15°C° 0.2 mm 4 mps 761 mmHg 87%
    01:00 +15°C° 0.1 mm 4 mps 760 mmHg 87%
    02:00 +15°C° 0.1 mm 4 mps 760 mmHg 87%
    03:00 +15°C° 0.1 mm 4 mps 760 mmHg 87%
    04:00 +15°C° 0.3 mm 4 mps 760 mmHg 88%
    05:00 +15°C° 0.3 mm 4 mps 761 mmHg 88%
    06:00 +15°C° 0.3 mm 4 mps 761 mmHg 89%
    07:00 +15°C° 0.3 mm 4 mps 761 mmHg 88%
    08:00 +17°C° 0.3 mm 4 mps 761 mmHg 88%
    09:00 +18°C° 0.3 mm 4 mps 761 mmHg 87%
    10:00 +18°C° 0.4 mm 4 mps 761 mmHg 84%
    11:00 +19°C° 0.4 mm 5 mps 761 mmHg 82%
    12:00 +19°C° 0.4 mm 5 mps 760 mmHg 79%
    13:00 +19°C° 0.5 mm 6 mps 760 mmHg 79%
    14:00 +19°C° 0.5 mm 6 mps 760 mmHg 80%
    15:00 +19°C° 0.5 mm 6 mps 760 mmHg 81%
    16:00 +17°C° 0.5 mm 6 mps 760 mmHg 84%
    17:00 +17°C° 0.5 mm 6 mps 760 mmHg 88%
    18:00 +16°C° 0.5 mm 6 mps 760 mmHg 91%
    19:00 +16°C° 0.5 mm 6 mps 760 mmHg 91%
    20:00 +16°C° 0.5 mm 6 mps 761 mmHg 91%
    21:00 +16°C° 0.5 mm 6 mps 761 mmHg 91%
    22:00 +16°C° 0.6 mm 6 mps 761 mmHg 91%
    23:00 +16°C° 0.6 mm 6 mps 760 mmHg 91%

    17 November, Saturday

    Time Temperature Precipitation Wind Pressure Humidity
    00:00 +16°C° 0.6 mm 6 mps 760 mmHg 90%
    01:00 +15°C° 0.5 mm 6 mps 760 mmHg 90%
    02:00 +15°C° 0.5 mm 6 mps 760 mmHg 89%
    03:00 +15°C° 0.5 mm 6 mps 760 mmHg 89%
    04:00 +15°C° 0.3 mm 6 mps 760 mmHg 89%
    05:00 +15°C° 0.3 mm 6 mps 760 mmHg 89%
    06:00 +14°C° 0.3 mm 6 mps 759 mmHg 89%
    07:00 +15°C° 0.2 mm 6 mps 760 mmHg 86%
    08:00 +15°C° 0.2 mm 6 mps 760 mmHg 83%
    09:00 +15°C° 0.2 mm 6 mps 760 mmHg 80%
    10:00 +16°C° 0.2 mm 6 mps 759 mmHg 79%
    11:00 +16°C° 0.2 mm 7 mps 759 mmHg 77%
    12:00 +17°C° 0.2 mm 7 mps 759 mmHg 75%
    13:00 +17°C° 0.2 mm 7 mps 759 mmHg 77%
    14:00 +17°C° 0.2 mm 7 mps 758 mmHg 78%
    15:00 +17°C° 0.2 mm 7 mps 758 mmHg 79%
    16:00 +16°C° 0.3 mm 6 mps 758 mmHg 82%
    17:00 +15°C° 0.3 mm 6 mps 758 mmHg 84%
    18:00 +15°C° 0.3 mm 6 mps 758 mmHg 87%
    19:00 +15°C° 0.4 mm 6 mps 758 mmHg 88%
    20:00 +15°C° 0.4 mm 6 mps 759 mmHg 88%
    21:00 +15°C° 0.4 mm 6 mps 759 mmHg 88%
    22:00 +15°C° 0.3 mm 6 mps 758 mmHg 88%
    23:00 +14°C° 0.3 mm 6 mps 758 mmHg 89%

    18 November, Sunday

    Time Temperature Precipitation Wind Pressure Humidity
    00:00 +14°C° 0.3 mm 6 mps 758 mmHg 89%
    01:00 +14°C° 0.2 mm 6 mps 757 mmHg 88%
    02:00 +14°C° 0.2 mm 5 mps 757 mmHg 88%
    03:00 +13°C° 0.2 mm 5 mps 757 mmHg 87%
    04:00 +13°C° 0.3 mm 5 mps 756 mmHg 88%
    05:00 +13°C° 0.3 mm 5 mps 756 mmHg 88%
    06:00 +13°C° 0.3 mm 5 mps 756 mmHg 88%
    07:00 +13°C° 0.3 mm 5 mps 756 mmHg 88%
    08:00 +13°C° 0.3 mm 5 mps 756 mmHg 87%
    09:00 +14°C° 0.3 mm 5 mps 756 mmHg 87%
    10:00 +14°C° 0.3 mm 5 mps 756 mmHg 85%
    11:00 +14°C° 0.3 mm 5 mps 755 mmHg 84%
    12:00 +15°C° 0.3 mm 5 mps 755 mmHg 82%
    13:00 +15°C° 0.2 mm 5 mps 755 mmHg 83%
    14:00 +14°C° 0.2 mm 5 mps 754 mmHg 84%
    15:00 +14°C° 0.2 mm 5 mps 754 mmHg 84%
    16:00 +14°C° 0.2 mm 5 mps 754 mmHg 86%
    17:00 +14°C° 0.2 mm 5 mps 754 mmHg 88%
    18:00 +13°C° 0.2 mm 5 mps 754 mmHg 90%
    19:00 +13°C° 0.4 mm 5 mps 754 mmHg 90%
    20:00 +13°C° 0.4 mm 5 mps 754 mmHg 90%
    21:00 +13°C° 0.4 mm 5 mps 754 mmHg 90%
    22:00 +13°C° 0.7 mm 5 mps 754 mmHg 90%
    23:00 +13°C° 0.7 mm 5 mps 753 mmHg 90%

    19 November, Monday

    Time Temperature Precipitation Wind Pressure Humidity
    00:00 +13°C° 0.7 mm 5 mps 753 mmHg 90%
    01:00 +13°C° 1.1 mm 5 mps 753 mmHg 90%
    02:00 +13°C° 1.1 mm 5 mps 752 mmHg 90%
    03:00 +13°C° 1.1 mm 5 mps 752 mmHg 91%
    04:00 +13°C° 0.9 mm 5 mps 752 mmHg 90%
    05:00 +13°C° 0.9 mm 5 mps 752 mmHg 90%
    06:00 +13°C° 0.9 mm 5 mps 752 mmHg 90%
    07:00 +14°C° 0.9 mm 5 mps 752 mmHg 89%
    08:00 +14°C° 0.9 mm 5 mps 752 mmHg 89%
    09:00 +14°C° 0.9 mm 5 mps 752 mmHg 88%
    10:00 +14°C° 0.8 mm 5 mps 752 mmHg 88%
    11:00 +14°C° 0.8 mm 5 mps 752 mmHg 87%
    12:00 +14°C° 0.8 mm 5 mps 751 mmHg 87%
    13:00 +14°C° 0.5 mm 5 mps 751 mmHg 86%
    14:00 +14°C° 0.5 mm 5 mps 751 mmHg 86%
    15:00 +14°C° 0.5 mm 6 mps 750 mmHg 85%
    16:00 +14°C° 0.4 mm 6 mps 750 mmHg 87%
    17:00 +14°C° 0.4 mm 6 mps 750 mmHg 88%
    18:00 +13°C° 0.4 mm 6 mps 750 mmHg 89%
    19:00 +13°C° 1.2 mm 6 mps 750 mmHg 89%
    20:00 +13°C° 1.2 mm 6 mps 751 mmHg 89%
    21:00 +13°C° 1.2 mm 6 mps 751 mmHg 88%
    22:00 +13°C° 2.2 mm 6 mps 751 mmHg 88%
    23:00 +13°C° 2.2 mm 6 mps 750 mmHg 88%
    Show more